Location: Nitra
(0.0000°N, 18.0833°E)
Time: 05:05:11
(UTC+01:00)

YAOGAN 1 - Pass Details

Date: 25 September 2022
Orbit: 617 x 619 km, 97.9° (Epoch: 01 December)

Event Time Altitude Azimuth Distance (km) Brightness Sun altitude
Rises 20:29:43 0° 183° (S) 2,886 6.0 -27.6°
Reaches altitude 10° 20:32:01 10° 191° (S) 1,978 5.3 -28.2°
Maximum altitude 20:36:00 37° 258° (WSW) 959 3.9 -29.2°
Drops below altitude 10° 20:39:58 10° 326° (NW) 1,971 5.5 -30.2°
Sets 20:42:16 0° 334° (NNW) 2,874 6.3 -30.7°
